User: anonymous   Login
Location: Caltech
(34.1382°N, 118.1253°W)
Time: 19:54:04
(UTC-08:00)
Language:

Oscar 19 - Orbit

View from above orbital plane
View from above orbital plane
View from above satellite
View from above satellite

Ground track
Ground track

The orbit data is extracted from the following two-line orbital elements,

1 20442U 90005G   17054.73911631  .00000008  00000-0  18992-4 0  9995
2 20442  98.5673 352.4605 0012735 119.9848 240.2602 14.32849330415378
Epoch (UTC): 23 February 2017 17:44:19
Eccentricity: 0.0012735
inclination: 98.5673°
perigee height: 773 km
apogee height: 791 km
right ascension of ascending node: 352.4605°
argument of perigee: 119.9848°
revolutions per day: 14.32849330
mean anomaly at epoch: 240.2602°
orbit number at epoch: 41537

The dashed part of the orbit path shows where the satellite is in the earth's shadow,  

DLR